EXS798 LCPH-EGPH

Flight info

Callsign EXS798
Flight time N/A
Altitude 34000
Route GENOS DCT TOSKA DCT VAXOS DCT KPC DCT AKINA DCT RIGRO DCT AMISI DCT DISOR DCT LONTA/N0449F360 UL608 DOLEV DCT BEDOX DCT SIMBA DCT GASKA DCT MAPOX DCT GODOS DCT AGPED
Aircraft B738/M-SDE2E3FGHIRWXY/LB1

Departure

Time 2026-04-21 07:56
Airport Paphos International Airport (LCPH)

Arrival

Time N/A
Airport Edinburgh Airport (EGPH)
Time Latitude Longitude Altitude Speed Heading
2026-04-21 07:33 34.71272 32.48418 45 ft 0 kts 161°
2026-04-21 07:48 34.71281 32.48414 45 ft 4 kts 160°
2026-04-21 07:48 34.71306 32.48402 42 ft 4 kts 160°
2026-04-21 07:49 34.71332 32.48392 40 ft 4 kts 162°
2026-04-21 07:49 34.71357 32.48380 45 ft 4 kts 150°
2026-04-21 07:49 34.71378 32.48361 44 ft 4 kts 127°
2026-04-21 07:49 34.71386 32.48343 42 ft 1 kts 110°
2026-04-21 07:50 34.71387 32.48341 42 ft 0 kts 110°
2026-04-21 07:51 34.71387 32.48342 42 ft 1 kts 110°
2026-04-21 07:52 34.71379 32.48366 44 ft 6 kts 110°
2026-04-21 07:52 34.71358 32.48436 45 ft 12 kts 110°
2026-04-21 07:52 34.71358 32.48546 42 ft 15 kts 65°
2026-04-21 07:52 34.71408 32.48676 43 ft 19 kts 65°
2026-04-21 07:53 34.71462 32.48820 43 ft 19 kts 65°
2026-04-21 07:53 34.71520 32.48957 45 ft 18 kts 46°
2026-04-21 07:53 34.71628 32.49023 45 ft 17 kts 47°
2026-04-21 07:53 34.71611 32.49159 46 ft 17 kts 110°
2026-04-21 07:54 34.71563 32.49316 44 ft 23 kts 109°
2026-04-21 07:54 34.71507 32.49503 41 ft 23 kts 110°
2026-04-21 07:54 34.71453 32.49683 41 ft 22 kts 110°
2026-04-21 07:54 34.71382 32.49780 43 ft 11 kts 156°
2026-04-21 07:55 34.71362 32.49828 44 ft 10 kts 83°
2026-04-21 07:55 34.71398 32.49847 43 ft 6 kts 331°
2026-04-21 07:55 34.71412 32.49812 43 ft 4 kts 288°
2026-04-21 07:55 34.71428 32.49756 42 ft 15 kts 291°
2026-04-21 07:56 34.71532 32.49420 43 ft 77 kts 290°
2026-04-21 07:56 34.71693 32.48891 46 ft 120 kts 290°
2026-04-21 07:56 34.72044 32.47732 136 ft 164 kts 288°
2026-04-21 07:56 34.72427 32.46397 846 ft 166 kts 283°
2026-04-21 07:57 34.72395 32.44971 1432 ft 176 kts 251°
2026-04-21 07:57 34.71976 32.43573 2099 ft 184 kts 251°
2026-04-21 07:57 34.71562 32.41976 2337 ft 210 kts 253°
2026-04-21 07:57 34.71137 32.40192 2560 ft 230 kts 254°
2026-04-21 07:58 34.70696 32.38277 3005 ft 240 kts 255°
2026-04-21 07:58 34.70236 32.36228 3289 ft 261 kts 256°
2026-04-21 07:58 34.69759 32.34067 3989 ft 265 kts 256°
2026-04-21 07:58 34.69284 32.31895 4812 ft 268 kts 257°
2026-04-21 07:59 34.68805 32.29691 5571 ft 270 kts 257°
2026-04-21 07:59 34.68333 32.27509 6383 ft 271 kts 258°
2026-04-21 07:59 34.67855 32.25286 7137 ft 273 kts 258°
2026-04-21 07:59 34.67374 32.23050 7881 ft 274 kts 258°
2026-04-21 08:00 34.66889 32.20801 8626 ft 276 kts 258°
2026-04-21 08:00 34.66400 32.18534 9392 ft 278 kts 258°
2026-04-21 08:00 34.66033 32.16229 10087 ft 279 kts 271°
2026-04-21 08:00 34.66149 32.13841 10451 ft 293 kts 277°
2026-04-21 08:01 34.66354 32.11286 10621 ft 315 kts 277°
2026-04-21 08:01 34.66578 32.08555 10784 ft 335 kts 277°
2026-04-21 08:01 34.66802 32.05675 11138 ft 347 kts 277°
2026-04-21 08:02 34.67229 31.99775 12464 ft 352 kts 276°
2026-04-21 08:02 34.67437 31.96804 13148 ft 354 kts 276°
2026-04-21 08:02 34.67645 31.93808 13807 ft 357 kts 276°
2026-04-21 08:02 34.67854 31.90787 14392 ft 360 kts 277°
2026-04-21 08:03 34.68165 31.87760 14959 ft 362 kts 281°
2026-04-21 08:03 34.68621 31.84734 15533 ft 365 kts 282°
2026-04-21 08:03 34.69129 31.81699 16091 ft 368 kts 283°
2026-04-21 08:03 34.69650 31.78636 16638 ft 372 kts 283°
2026-04-21 08:04 34.70170 31.75546 17191 ft 375 kts 283°
2026-04-21 08:04 34.70685 31.72428 17741 ft 378 kts 282°
2026-04-21 08:04 34.71196 31.69281 18297 ft 381 kts 282°
2026-04-21 08:04 34.71704 31.66110 18762 ft 384 kts 282°
2026-04-21 08:05 34.72212 31.62916 19249 ft 386 kts 282°
2026-04-21 08:05 34.72719 31.59703 19740 ft 388 kts 282°
2026-04-21 08:05 34.73227 31.56471 20210 ft 391 kts 282°
2026-04-21 08:05 34.73737 31.53216 20672 ft 393 kts 283°
2026-04-21 08:06 34.74249 31.49946 21123 ft 395 kts 283°
2026-04-21 08:06 34.74764 31.46651 21561 ft 398 kts 283°
2026-04-21 08:06 34.75275 31.43369 21995 ft 400 kts 283°
2026-04-21 08:06 34.75794 31.40032 22431 ft 403 kts 283°
2026-04-21 08:07 34.76316 31.36673 22837 ft 406 kts 283°
2026-04-21 08:07 34.76840 31.33291 23247 ft 408 kts 283°
2026-04-21 08:07 34.77366 31.29891 23649 ft 410 kts 283°
2026-04-21 08:07 34.77895 31.26468 23989 ft 412 kts 283°
2026-04-21 08:08 34.78423 31.23034 24358 ft 414 kts 283°
2026-04-21 08:08 34.78953 31.19589 24701 ft 415 kts 283°
2026-04-21 08:08 34.79476 31.16179 25036 ft 417 kts 283°
2026-04-21 08:08 34.80008 31.12704 25371 ft 418 kts 283°
2026-04-21 08:09 34.80541 31.09222 25706 ft 420 kts 283°
2026-04-21 08:09 34.81074 31.05724 26023 ft 421 kts 283°
2026-04-21 08:09 34.81609 31.02212 26337 ft 423 kts 283°
2026-04-21 08:09 34.82145 30.98689 26645 ft 424 kts 283°
2026-04-21 08:10 34.82681 30.95149 26955 ft 426 kts 283°
2026-04-21 08:10 34.83219 30.91599 27254 ft 427 kts 282°
2026-04-21 08:10 34.83757 30.88036 27543 ft 429 kts 282°
2026-04-21 08:10 34.84295 30.84464 27849 ft 430 kts 282°
2026-04-21 08:11 34.84832 30.80890 28244 ft 428 kts 282°
2026-04-21 08:11 34.85365 30.77335 28718 ft 425 kts 282°
2026-04-21 08:11 34.85893 30.73805 29184 ft 423 kts 282°
2026-04-21 08:11 34.86419 30.70288 29573 ft 422 kts 282°
2026-04-21 08:12 34.86943 30.66778 29940 ft 421 kts 282°
2026-04-21 08:12 34.87464 30.63279 30302 ft 419 kts 282°
2026-04-21 08:12 34.87981 30.59796 30684 ft 416 kts 282°
2026-04-21 08:12 34.88493 30.56342 31085 ft 413 kts 282°
2026-04-21 08:13 34.89000 30.52912 31439 ft 411 kts 282°
2026-04-21 08:13 34.89504 30.49497 31774 ft 409 kts 282°
2026-04-21 08:13 34.90005 30.46101 32115 ft 406 kts 282°
2026-04-21 08:13 34.90502 30.42720 32474 ft 404 kts 282°
2026-04-21 08:14 34.90995 30.39365 32825 ft 401 kts 282°
2026-04-21 08:14 34.91483 30.36028 33152 ft 399 kts 282°
2026-04-21 08:14 34.91962 30.32754 33487 ft 397 kts 282°
2026-04-21 08:14 34.92443 30.29460 33808 ft 395 kts 282°
2026-04-21 08:15 34.92922 30.26170 34028 ft 394 kts 282°
2026-04-21 08:15 34.93883 30.19556 34016 ft 396 kts 282°
2026-04-21 08:16 34.94834 30.12977 34023 ft 393 kts 282°
2026-04-21 08:16 34.95777 30.06439 34023 ft 390 kts 282°
2026-04-21 08:17 34.96690 29.99932 34019 ft 389 kts 279°
2026-04-21 08:17 34.97022 29.93339 34017 ft 390 kts 275°
2026-04-21 08:18 34.97263 29.86741 34024 ft 390 kts 275°
2026-04-21 08:18 34.97516 29.80133 34023 ft 391 kts 275°
2026-04-21 08:19 34.97777 29.73506 34018 ft 392 kts 275°
2026-04-21 08:19 34.98039 29.66852 34023 ft 394 kts 275°
2026-04-21 08:20 34.98298 29.60171 34027 ft 395 kts 275°
2026-04-21 08:20 34.98555 29.53465 34027 ft 396 kts 275°
2026-04-21 08:21 34.98808 29.46741 34024 ft 397 kts 275°
2026-04-21 08:21 34.99059 29.40006 34025 ft 398 kts 275°
2026-04-21 08:22 34.99383 29.33276 34024 ft 396 kts 280°
2026-04-21 08:22 35.00610 29.26802 34025 ft 394 kts 285°
2026-04-21 08:23 35.01969 29.20325 34031 ft 394 kts 285°
2026-04-21 08:23 35.03310 29.13847 34030 ft 394 kts 285°
2026-04-21 08:24 35.04637 29.07368 34030 ft 393 kts 285°
2026-04-21 08:24 35.05955 29.00894 34028 ft 393 kts 285°
2026-04-21 08:25 35.07268 28.94424 34028 ft 393 kts 285°
2026-04-21 08:25 35.08576 28.87955 34022 ft 392 kts 285°
2026-04-21 08:26 35.09881 28.81487 34032 ft 392 kts 285°
2026-04-21 08:26 35.11183 28.75014 34038 ft 392 kts 285°
2026-04-21 08:27 35.12481 28.68539 34030 ft 393 kts 285°
2026-04-21 08:27 35.13778 28.62053 34036 ft 393 kts 285°
2026-04-21 08:28 35.15071 28.55567 34038 ft 393 kts 284°
2026-04-21 08:28 35.16554 28.49144 34015 ft 393 kts 296°
2026-04-21 08:29 35.19796 28.43785 34036 ft 396 kts 314°
2026-04-21 08:29 35.24204 28.39686 34035 ft 399 kts 321°
2026-04-21 08:30 35.28720 28.35711 34037 ft 400 kts 321°
2026-04-21 08:30 35.33229 28.31712 34042 ft 400 kts 320°
2026-04-21 08:31 35.37732 28.27685 34031 ft 401 kts 320°
2026-04-21 08:31 35.42230 28.23643 34030 ft 401 kts 320°
2026-04-21 08:32 35.46729 28.19591 34032 ft 401 kts 320°
2026-04-21 08:32 35.51227 28.15534 34038 ft 401 kts 320°
2026-04-21 08:33 35.55724 28.11472 34032 ft 401 kts 320°
2026-04-21 08:33 35.60218 28.07408 34031 ft 401 kts 320°
2026-04-21 08:34 35.64709 28.03340 34027 ft 401 kts 320°
2026-04-21 08:34 35.69195 27.99271 34027 ft 400 kts 320°
2026-04-21 08:35 35.73675 27.95201 34031 ft 400 kts 320°
2026-04-21 08:35 35.78153 27.91127 34025 ft 400 kts 320°
2026-04-21 08:36 35.82629 27.87050 34029 ft 400 kts 320°
2026-04-21 08:36 35.87101 27.82970 34029 ft 400 kts 320°
2026-04-21 08:37 35.91544 27.78911 34025 ft 400 kts 320°
2026-04-21 08:37 35.96018 27.74817 34027 ft 401 kts 320°
2026-04-21 08:38 36.00497 27.70713 34024 ft 401 kts 320°
2026-04-21 08:38 36.04979 27.66601 34028 ft 401 kts 320°
2026-04-21 08:39 36.09462 27.62481 34023 ft 402 kts 320°
2026-04-21 08:39 36.13947 27.58354 34022 ft 402 kts 320°
2026-04-21 08:40 36.18432 27.54221 34018 ft 402 kts 320°
2026-04-21 08:40 36.22918 27.50081 34018 ft 402 kts 320°
2026-04-21 08:41 36.27401 27.45938 34015 ft 402 kts 320°
2026-04-21 08:41 36.31883 27.41789 34018 ft 402 kts 320°
2026-04-21 08:42 36.36357 27.37641 34017 ft 401 kts 320°
2026-04-21 08:42 36.40830 27.33490 34018 ft 401 kts 320°
2026-04-21 08:43 36.45291 27.29344 34020 ft 400 kts 320°
2026-04-21 08:43 36.48993 27.25897 34017 ft 400 kts 320°
2026-04-21 08:44 36.53441 27.21750 34021 ft 400 kts 320°
2026-04-21 08:44 36.57885 27.17600 34018 ft 399 kts 320°
2026-04-21 08:45 36.62323 27.13451 34023 ft 399 kts 320°
2026-04-21 08:45 36.66760 27.09295 34027 ft 399 kts 320°
2026-04-21 08:46 36.71201 27.05130 34026 ft 400 kts 320°
2026-04-21 08:46 36.75646 27.00955 34021 ft 400 kts 320°
2026-04-21 08:47 36.80095 26.96771 34018 ft 401 kts 320°
2026-04-21 08:47 36.84551 26.92574 34026 ft 401 kts 320°
2026-04-21 08:48 36.89010 26.88367 34021 ft 402 kts 320°
2026-04-21 08:48 36.93474 26.84149 34023 ft 403 kts 320°
2026-04-21 08:49 36.97944 26.79921 34021 ft 403 kts 320°
2026-04-21 08:49 37.02414 26.75684 34022 ft 403 kts 320°
2026-04-21 08:50 37.06889 26.71437 34016 ft 404 kts 320°
2026-04-21 08:50 37.11364 26.67183 34019 ft 404 kts 320°
2026-04-21 08:51 37.15838 26.62924 34020 ft 404 kts 320°
2026-04-21 08:51 37.20281 26.58689 34020 ft 404 kts 320°
2026-04-21 08:52 37.24748 26.54423 34019 ft 404 kts 320°
2026-04-21 08:52 37.29214 26.50153 34013 ft 403 kts 320°
2026-04-21 08:53 37.33673 26.45882 34017 ft 403 kts 320°
2026-04-21 08:53 37.38130 26.41607 34013 ft 403 kts 320°
2026-04-21 08:54 37.42579 26.37332 34009 ft 402 kts 319°
2026-04-21 08:54 37.47025 26.33054 34009 ft 402 kts 319°
2026-04-21 08:55 37.51468 26.28772 34007 ft 402 kts 319°
2026-04-21 08:55 37.55908 26.24487 34009 ft 402 kts 319°
2026-04-21 08:56 37.60347 26.20195 34013 ft 403 kts 319°
2026-04-21 08:56 37.64802 26.15882 34003 ft 404 kts 319°
2026-04-21 08:57 37.69257 26.11563 34006 ft 404 kts 319°
2026-04-21 08:57 37.73709 26.07240 34002 ft 404 kts 319°
2026-04-21 08:58 37.78159 26.02911 34005 ft 404 kts 319°
2026-04-21 08:58 37.82606 25.98579 34002 ft 404 kts 319°
2026-04-21 08:59 37.87054 25.94239 34000 ft 404 kts 319°
2026-04-21 08:59 37.91497 25.89897 34004 ft 404 kts 319°
2026-04-21 09:00 37.95941 25.85547 34000 ft 404 kts 319°
2026-04-21 09:00 38.00383 25.81193 34002 ft 404 kts 319°
2026-04-21 09:01 38.04821 25.76835 33998 ft 404 kts 319°
2026-04-21 09:01 38.09259 25.72471 33995 ft 404 kts 319°
2026-04-21 09:02 38.13696 25.68100 33999 ft 404 kts 319°
2026-04-21 09:02 38.18103 25.63753 33989 ft 404 kts 319°
2026-04-21 09:03 38.24786 25.57146 33993 ft 404 kts 319°
2026-04-21 09:03 38.29191 25.52784 33995 ft 404 kts 319°
2026-04-21 09:04 38.33624 25.48386 33994 ft 404 kts 319°
2026-04-21 09:04 38.38059 25.43980 33996 ft 404 kts 319°
2026-04-21 09:05 38.42492 25.39568 33989 ft 404 kts 319°
2026-04-21 09:05 38.46923 25.35151 33989 ft 404 kts 319°
2026-04-21 09:06 38.51358 25.30723 33981 ft 405 kts 319°
2026-04-21 09:06 38.55791 25.26290 33981 ft 405 kts 319°
2026-04-21 09:07 38.60222 25.21852 33980 ft 405 kts 319°
2026-04-21 09:07 38.64654 25.17406 33981 ft 405 kts 319°
2026-04-21 09:08 38.69087 25.12951 33977 ft 405 kts 319°
2026-04-21 09:08 38.73519 25.08491 33976 ft 405 kts 319°
2026-04-21 09:09 38.77950 25.04023 33973 ft 406 kts 319°
2026-04-21 09:09 38.82385 24.99545 33977 ft 406 kts 319°
2026-04-21 09:10 38.86819 24.95061 33978 ft 406 kts 319°
2026-04-21 09:10 38.91258 24.90563 33970 ft 406 kts 319°
2026-04-21 09:11 38.95695 24.86061 33970 ft 407 kts 319°
2026-04-21 09:11 39.00136 24.81548 33973 ft 407 kts 319°
2026-04-21 09:12 39.04576 24.77028 33973 ft 407 kts 318°
2026-04-21 09:12 39.09010 24.72506 33968 ft 407 kts 318°
2026-04-21 09:13 39.13440 24.67981 33969 ft 406 kts 318°
2026-04-21 09:13 39.17863 24.63456 33964 ft 406 kts 318°
2026-04-21 09:14 39.22275 24.58935 33961 ft 405 kts 318°
2026-04-21 09:14 39.26675 24.54418 33966 ft 404 kts 318°
2026-04-21 09:15 39.31063 24.49907 33967 ft 403 kts 318°
2026-04-21 09:15 39.35439 24.45400 33963 ft 402 kts 318°
2026-04-21 09:16 39.39807 24.40894 33960 ft 401 kts 318°
2026-04-21 09:16 39.44163 24.36393 33964 ft 401 kts 318°
2026-04-21 09:17 39.48516 24.31888 33961 ft 400 kts 318°
2026-04-21 09:17 39.52862 24.27382 33964 ft 400 kts 318°
2026-04-21 09:18 39.57175 24.22903 33958 ft 400 kts 318°
2026-04-21 09:18 39.61517 24.18387 33961 ft 400 kts 318°
2026-04-21 09:19 39.65856 24.13866 33962 ft 400 kts 318°
2026-04-21 09:19 39.70196 24.09336 33963 ft 400 kts 318°
2026-04-21 09:20 39.74536 24.04799 33960 ft 401 kts 318°
2026-04-21 09:20 39.78879 24.00252 33960 ft 401 kts 318°
2026-04-21 09:21 39.83218 23.95701 33959 ft 401 kts 318°
2026-04-21 09:21 39.87554 23.91146 33958 ft 401 kts 317°
2026-04-21 09:22 39.91888 23.86585 33955 ft 400 kts 317°
2026-04-21 09:22 39.96221 23.82018 33958 ft 400 kts 317°
2026-04-21 09:23 40.00547 23.77450 33957 ft 400 kts 317°
2026-04-21 09:23 40.04868 23.72879 33948 ft 400 kts 317°
2026-04-21 09:24 40.09188 23.68303 33949 ft 400 kts 317°
2026-04-21 09:24 40.13503 23.63724 33946 ft 399 kts 317°
2026-04-21 09:25 40.17813 23.59142 33947 ft 399 kts 317°
2026-04-21 09:25 40.22118 23.54558 33950 ft 399 kts 317°
2026-04-21 09:26 40.26421 23.49968 33951 ft 399 kts 317°
2026-04-21 09:26 40.30678 23.45419 33948 ft 399 kts 317°
2026-04-21 09:27 40.34978 23.40818 33933 ft 399 kts 317°
2026-04-21 09:27 40.39275 23.36211 33943 ft 399 kts 317°
2026-04-21 09:28 40.43575 23.31593 33956 ft 399 kts 317°
2026-04-21 09:28 40.47148 23.27750 33950 ft 400 kts 317°
2026-04-21 09:29 40.52144 23.22368 33949 ft 400 kts 317°
2026-04-21 09:29 40.56440 23.17730 33951 ft 399 kts 317°
2026-04-21 09:30 40.60033 23.13847 33955 ft 398 kts 317°
2026-04-21 09:30 40.64309 23.09217 33961 ft 398 kts 317°
2026-04-21 09:31 40.68573 23.04593 33953 ft 397 kts 317°
2026-04-21 09:31 40.72825 22.99972 33951 ft 396 kts 317°
2026-04-21 09:32 40.77071 22.95351 33945 ft 395 kts 317°
2026-04-21 09:32 40.81307 22.90732 33942 ft 395 kts 317°
2026-04-21 09:33 40.85543 22.86106 33929 ft 395 kts 317°
2026-04-21 09:33 40.89748 22.81506 33935 ft 395 kts 317°
2026-04-21 09:34 40.93978 22.76870 33937 ft 395 kts 317°
2026-04-21 09:34 40.98211 22.72224 33934 ft 395 kts 317°
2026-04-21 09:35 41.02442 22.67571 33945 ft 396 kts 316°
2026-04-21 09:35 41.06675 22.62908 33937 ft 395 kts 316°
2026-04-21 09:36 41.10903 22.58243 33945 ft 395 kts 316°
2026-04-21 09:36 41.15123 22.53579 33955 ft 395 kts 316°
2026-04-21 09:37 41.19340 22.48909 33949 ft 394 kts 316°
2026-04-21 09:37 41.23549 22.44241 33951 ft 394 kts 316°
2026-04-21 09:38 41.27745 22.39579 33979 ft 393 kts 316°
2026-04-21 09:38 41.31965 22.34880 33970 ft 398 kts 316°
2026-04-21 09:39 41.36042 22.30335 33975 ft 397 kts 316°
2026-04-21 09:39 41.40267 22.25618 34004 ft 397 kts 316°
2026-04-21 09:40 41.44522 22.20853 34230 ft 402 kts 316°
2026-04-21 09:40 41.46660 22.18458 34452 ft 401 kts 316°
2026-04-21 09:40 41.48795 22.16065 34694 ft 400 kts 316°
2026-04-21 09:41 41.50924 22.13677 34891 ft 400 kts 316°
2026-04-21 09:41 41.53056 22.11282 35070 ft 401 kts 316°
2026-04-21 09:41 41.55187 22.08885 35277 ft 401 kts 316°
2026-04-21 09:41 41.57318 22.06488 35479 ft 400 kts 316°
2026-04-21 09:42 41.59449 22.04087 35648 ft 401 kts 316°
2026-04-21 09:42 41.61581 22.01683 35831 ft 401 kts 316°
2026-04-21 09:42 41.63711 21.99280 35977 ft 401 kts 316°
2026-04-21 09:42 41.65852 21.96861 35979 ft 404 kts 316°
2026-04-21 09:43 41.70139 21.92013 35989 ft 402 kts 316°
2026-04-21 09:43 41.74392 21.87196 36003 ft 399 kts 316°
2026-04-21 09:44 41.78617 21.82402 36006 ft 397 kts 316°
2026-04-21 09:44 41.82815 21.77628 36013 ft 395 kts 316°
2026-04-21 09:45 41.87001 21.72858 36021 ft 395 kts 316°
2026-04-21 09:45 41.91163 21.68107 36026 ft 397 kts 316°
2026-04-21 09:46 41.95375 21.63291 36027 ft 399 kts 316°
2026-04-21 09:46 41.99605 21.58448 36023 ft 400 kts 316°
2026-04-21 09:47 42.03844 21.53584 36028 ft 401 kts 316°
2026-04-21 09:47 42.08098 21.48694 36021 ft 403 kts 316°
2026-04-21 09:48 42.12369 21.43776 36016 ft 405 kts 316°
2026-04-21 09:48 42.16564 21.38742 36013 ft 402 kts 309°
2026-04-21 09:49 42.20177 21.33034 36024 ft 400 kts 307°
2026-04-21 09:49 42.23765 21.27290 36023 ft 400 kts 307°
2026-04-21 09:50 42.26169 21.23453 36023 ft 400 kts 307°
2026-04-21 09:50 42.30915 21.15893 36029 ft 399 kts 307°
2026-04-21 09:51 42.34524 21.10140 36043 ft 397 kts 307°
2026-04-21 09:51 42.38090 21.04445 36044 ft 396 kts 307°
2026-04-21 09:52 42.41644 20.98758 36052 ft 396 kts 307°
2026-04-21 09:52 42.45196 20.93063 36041 ft 395 kts 307°
2026-04-21 09:53 42.48736 20.87377 36044 ft 394 kts 307°
2026-04-21 09:53 42.52265 20.81696 36051 ft 394 kts 307°
2026-04-21 09:54 42.55792 20.76009 36043 ft 394 kts 307°
2026-04-21 09:54 42.59319 20.70310 36040 ft 395 kts 307°
2026-04-21 09:55 42.62850 20.64593 36043 ft 395 kts 307°
2026-04-21 09:55 42.66379 20.58870 36046 ft 395 kts 307°
2026-04-21 09:56 42.69906 20.53138 36047 ft 395 kts 307°
2026-04-21 09:56 42.73435 20.47391 36046 ft 396 kts 307°
2026-04-21 09:57 42.76967 20.41627 36046 ft 397 kts 307°
2026-04-21 09:57 42.80511 20.35835 36042 ft 398 kts 307°
2026-04-21 09:58 42.84148 20.30122 36048 ft 402 kts 314°
2026-04-21 09:58 42.88349 20.25044 36038 ft 404 kts 315°
2026-04-21 09:59 42.92588 20.19990 36042 ft 405 kts 315°
2026-04-21 09:59 42.96808 20.14924 36041 ft 403 kts 315°
2026-04-21 10:00 43.01000 20.09859 36042 ft 401 kts 315°
2026-04-21 10:00 43.05142 20.04835 36041 ft 400 kts 315°
2026-04-21 10:01 43.09300 19.99782 36048 ft 400 kts 315°
2026-04-21 10:01 43.13451 19.94725 36037 ft 399 kts 315°
2026-04-21 10:02 43.19667 19.87137 36046 ft 399 kts 315°
2026-04-21 10:03 43.23810 19.82067 36049 ft 400 kts 315°
2026-04-21 10:03 43.27957 19.76983 36043 ft 400 kts 315°
2026-04-21 10:04 43.32109 19.71882 36032 ft 401 kts 315°
2026-04-21 10:04 43.36263 19.66769 36029 ft 401 kts 315°
2026-04-21 10:05 43.40413 19.61654 36042 ft 400 kts 314°
2026-04-21 10:05 43.44553 19.56540 36035 ft 400 kts 314°
2026-04-21 10:06 43.48682 19.51429 36046 ft 399 kts 314°
2026-04-21 10:06 43.52788 19.46337 36046 ft 400 kts 314°
2026-04-21 10:07 43.56921 19.41201 36030 ft 400 kts 314°
2026-04-21 10:07 43.61056 19.36053 36030 ft 400 kts 314°
2026-04-21 10:08 43.65191 19.30895 36030 ft 401 kts 314°
2026-04-21 10:08 43.69328 19.25725 36046 ft 402 kts 314°
2026-04-21 10:09 43.73479 19.20527 36031 ft 403 kts 314°
2026-04-21 10:09 43.77633 19.15316 36037 ft 403 kts 314°
2026-04-21 10:10 43.81789 19.10091 36022 ft 404 kts 314°
2026-04-21 10:10 43.85945 19.04857 36030 ft 404 kts 314°
2026-04-21 10:11 43.90095 18.99620 36025 ft 403 kts 314°
2026-04-21 10:11 43.94236 18.94385 36026 ft 402 kts 314°
2026-04-21 10:12 43.98364 18.89155 36013 ft 401 kts 314°
2026-04-21 10:12 44.02476 18.83935 36013 ft 400 kts 314°
2026-04-21 10:13 44.06573 18.78723 36018 ft 399 kts 314°
2026-04-21 10:13 44.10662 18.73511 36016 ft 399 kts 314°
2026-04-21 10:14 44.14748 18.68293 36019 ft 398 kts 314°
2026-04-21 10:14 44.18826 18.63075 36033 ft 398 kts 314°
2026-04-21 10:15 44.22872 18.57888 36028 ft 398 kts 314°
2026-04-21 10:15 44.26933 18.52671 36033 ft 397 kts 314°
2026-04-21 10:16 44.30989 18.47451 36031 ft 396 kts 314°
2026-04-21 10:16 44.35041 18.42226 36033 ft 397 kts 314°
2026-04-21 10:17 44.39090 18.36994 36034 ft 396 kts 314°
2026-04-21 10:17 44.43134 18.31758 36034 ft 396 kts 314°
2026-04-21 10:18 44.46494 18.27399 36030 ft 396 kts 314°
2026-04-21 10:18 44.50536 18.22147 36038 ft 396 kts 314°
2026-04-21 10:19 44.54578 18.16884 36044 ft 397 kts 314°
2026-04-21 10:19 44.58619 18.11613 36027 ft 397 kts 314°
2026-04-21 10:20 44.62661 18.06328 36031 ft 397 kts 314°
2026-04-21 10:20 44.66695 18.01045 36028 ft 397 kts 314°
2026-04-21 10:21 44.70729 17.95752 36045 ft 397 kts 314°
2026-04-21 10:21 44.74759 17.90452 36042 ft 396 kts 314°
2026-04-21 10:22 44.78785 17.85148 36042 ft 396 kts 314°
2026-04-21 10:22 44.82807 17.79837 36047 ft 396 kts 314°
2026-04-21 10:23 44.86796 17.74560 36050 ft 396 kts 314°
2026-04-21 10:23 44.90807 17.69243 36048 ft 396 kts 314°
2026-04-21 10:24 44.94813 17.63922 36051 ft 395 kts 314°
2026-04-21 10:24 44.98816 17.58594 36055 ft 395 kts 314°
2026-04-21 10:25 45.02816 17.53259 36047 ft 395 kts 314°
2026-04-21 10:25 45.06814 17.47917 36054 ft 395 kts 314°
2026-04-21 10:26 45.10809 17.42568 36052 ft 395 kts 314°
2026-04-21 10:26 45.14801 17.37210 36052 ft 395 kts 314°
2026-04-21 10:27 45.18792 17.31846 36054 ft 395 kts 314°
2026-04-21 10:27 45.22780 17.26472 36051 ft 395 kts 314°
2026-04-21 10:28 45.26767 17.21090 36056 ft 395 kts 314°
2026-04-21 10:28 45.30746 17.15707 36061 ft 395 kts 314°
2026-04-21 10:29 45.34725 17.10314 36054 ft 395 kts 314°
2026-04-21 10:29 45.38697 17.04919 36061 ft 395 kts 314°
2026-04-21 10:30 45.42668 16.99515 36061 ft 395 kts 313°
2026-04-21 10:30 45.46631 16.94110 36065 ft 394 kts 313°
2026-04-21 10:31 45.50589 16.88700 36051 ft 394 kts 313°
2026-04-21 10:31 45.54544 16.83285 36055 ft 394 kts 313°
2026-04-21 10:32 45.58492 16.77867 36062 ft 394 kts 313°
2026-04-21 10:32 45.62434 16.72447 36061 ft 393 kts 313°
2026-04-21 10:33 45.66372 16.67020 36058 ft 393 kts 313°
2026-04-21 10:33 45.70305 16.61590 36052 ft 393 kts 313°
2026-04-21 10:34 45.74239 16.56146 36058 ft 393 kts 313°
2026-04-21 10:34 45.78140 16.50737 36066 ft 393 kts 313°